Location: Spring Creek
(38.2870°N, 100.2160°W)
Time: 09:09:06
(UTC+00:00)

Cosmos 1844 Rocket - Pass Details

Date: 08 May 2021
Orbit: 823 x 846 km, 71.0° (Epoch: 21 June)

Event Time Altitude Azimuth Distance (km) Brightness Sun altitude
Rises 02:30:13 0° 188° (S) 3,341 5.6 -9.9°
Reaches altitude 10° 02:32:40 10° 184° (S) 2,412 4.8 -10.3°
Maximum altitude 02:38:02 55° 108° (ESE) 986 2.7 -11.2°
Drops below altitude 10° 02:43:28 10° 31° (NNE) 2,433 5.1 -12.1°
Sets 02:45:57 0° 28° (NNE) 3,372 5.9 -12.5°
